Prudhoe Bay, AK

3:59 PM AKST on January 18, 2017 (GMT -0900)
Deadhorse

Weather History for PASC - January, 2013

Change the Weather History Date:

Thursday, January 10, 2013

  Actual Average Record
Temperature  
Mean Temperature -20 °F -  
Max Temperature -15 °F -5 °F 32 °F (2011)
Min Temperature -26 °F -17 °F -42 °F (1991)
Degree Days  
Heating Degree Days 86    
Moisture  
Dew Point -26 °F    
Average Humidity 73    
Maximum Humidity 83    
Minimum Humidity 67    
Precipitation  
Precipitation 0.00 in - - ()
Sea Level Pressure  
Sea Level Pressure 30.13 in    
Wind  
Wind Speed 3 mph (West)    
Max Wind Speed 6 mph    
Max Gust Speed -    
Visibility 6 miles    
Events Fog , Snow    
Averages and records for this station are not official NWS values.
T = Trace of Precipitation, MM = Missing Value Source: NWS Daily Summary

Daily Weather History Graph

Daily Weather History Graph

Search for Another Location

Airport or City:

Trip Planner

Search our weather history database for the weather conditions in past years. The results will help you decide how hot, cold, wet, or windy it might be!

Date:

Astronomy

Jan. 10, 2013 Rise Set
Actual Time 12:29 PM AKST 1:34 PM AKST
Civil Twilight 10:26 AM AKST 3:37 PM AKST
Nautical Twilight 8:49 AM AKST 5:14 PM AKST
Astronomical Twilight 7:31 AM AKST 6:32 PM AKST
Moon No Moon Rise No Moon Set
Length of Visible Light 5h 10m
Length of Day
1h 04m
Waning Crescent, 1% of the Moon is Illuminated
Jan 10
Waning Crescent
Jan 11
New
Jan 18
First Quarter
Jan 26
Full
Feb 3
Last Quarter

Hourly Weather History & Observations

Time (AKST) Temp. Windchill Dew Point Humidity Pressure Visibility Wind Dir Wind Speed Gust Speed Precip Events Conditions
12:53 AM -15.0 °F -25.0 °F -20.0 °F 78% 30.13 in 1.0 mi WNW 3.5 mph - N/A   Mist
1:53 AM -15.0 °F -27.4 °F -20.0 °F 78% 30.13 in 2.0 mi West 4.6 mph - N/A   Overcast
2:53 AM -16.1 °F -28.6 °F -20.9 °F 79% 30.12 in 1.2 mi WNW 4.6 mph - N/A   Overcast
3:29 AM -16.6 °F -31.3 °F -23.8 °F 70% 30.10 in 3.0 mi WNW 5.8 mph - N/A   Overcast
3:53 AM -17.0 °F -29.7 °F -23.1 °F 74% 30.11 in 1.5 mi WNW 4.6 mph - N/A   Overcast
4:07 AM -16.6 °F - -23.8 °F 70% 30.09 in 0.5 mi Calm Calm - N/A Fog Light Freezing Fog
4:31 AM -18.4 °F -28.9 °F -23.8 °F 76% 30.10 in 1.0 mi West 3.5 mph - N/A   Mist
4:53 AM -18.9 °F -29.5 °F -24.0 °F 78% 30.10 in 3.0 mi West 3.5 mph - N/A   Overcast
5:24 AM -18.4 °F -31.4 °F -23.8 °F 76% 30.10 in 1.8 mi West 4.6 mph - N/A   Overcast
5:39 AM -20.2 °F -30.9 °F -25.6 °F 76% 30.10 in 3.0 mi West 3.5 mph - N/A   Overcast
5:53 AM -18.9 °F - -25.1 °F 74% 30.11 in 1.5 mi Calm Calm - N/A   Overcast
6:30 AM -20.2 °F -33.5 °F -27.4 °F 69% 30.09 in 0.8 mi West 4.6 mph - N/A   Mist
6:53 AM -20.9 °F -31.7 °F -26.0 °F 77% 30.11 in 1.2 mi West 3.5 mph - N/A   Overcast
7:13 AM -20.2 °F -30.9 °F -27.4 °F 69% 30.09 in 4.0 mi West 3.5 mph - N/A   Mostly Cloudy
7:17 AM -20.2 °F -30.9 °F -27.4 °F 69% 30.09 in 5.0 mi West 3.5 mph - N/A   Partly Cloudy
7:53 AM -23.1 °F -38.9 °F -29.0 °F 74% 30.10 in 6.0 mi West 5.8 mph - N/A   Mostly Cloudy
8:32 AM -23.8 °F -39.8 °F -27.4 °F 83% 30.09 in 10.0 mi West 5.8 mph - N/A   Scattered Clouds
8:53 AM -23.1 °F -38.9 °F -29.9 °F 70% 30.12 in 6.0 mi West 5.8 mph - N/A   Scattered Clouds
9:53 AM -18.9 °F -29.5 °F -26.0 °F 70% 30.11 in 6.0 mi NNW 3.5 mph - N/A   Mostly Cloudy
10:53 AM -20.9 °F -31.7 °F -27.9 °F 70% 30.12 in 10.0 mi WSW 3.5 mph - N/A   Overcast
11:25 AM -20.2 °F -30.9 °F -27.4 °F 69% 30.11 in 10.0 mi WSW 3.5 mph - N/A   Overcast
11:53 AM -20.0 °F - -27.0 °F 70% 30.12 in 10.0 mi Calm Calm - N/A   Overcast
12:32 PM -18.4 °F -33.4 °F -25.6 °F 70% 30.11 in 10.0 mi NNW 5.8 mph - N/A   Overcast
12:53 PM -20.0 °F - -26.0 °F 74% 30.12 in 10.0 mi Calm Calm - N/A   Overcast
1:03 PM -18.4 °F - -25.6 °F 70% 30.11 in 10.0 mi Calm Calm - N/A   Overcast
1:53 PM -17.0 °F - -25.1 °F 67% 30.13 in 9.0 mi Calm Calm - N/A Snow Light Snow
2:53 PM -18.0 °F - -24.0 °F 74% 30.14 in 5.0 mi Calm Calm - N/A   Overcast
3:53 PM -18.9 °F - -25.1 °F 74% 30.15 in 7.0 mi Calm Calm - N/A   Overcast
3:59 PM -20.2 °F - -25.6 °F 76% 30.14 in 5.0 mi Calm Calm - N/A   Overcast
4:06 PM -20.2 °F - -27.4 °F 69% 30.14 in 5.0 mi Calm Calm - N/A   Overcast
4:53 PM -23.1 °F - -27.9 °F 78% 30.16 in 3.0 mi Calm Calm - N/A   Overcast
5:53 PM -20.9 °F -34.3 °F -27.9 °F 70% 30.15 in 6.0 mi North 4.6 mph - N/A   Partly Cloudy
6:53 PM -20.9 °F - -27.0 °F 73% 30.16 in 10.0 mi Calm Calm - N/A   Partly Cloudy
7:19 PM -20.2 °F - -27.4 °F 69% 30.16 in 10.0 mi Calm Calm - N/A   Partly Cloudy
7:53 PM -20.9 °F - -27.9 °F 70% 30.17 in 10.0 mi Calm Calm - N/A   Partly Cloudy
8:53 PM -26.0 °F - -32.1 °F 73% 30.18 in 10.0 mi Calm Calm - N/A   Partly Cloudy
9:53 PM -24.0 °F - -29.9 °F 74% 30.18 in 10.0 mi Calm Calm - N/A   Mostly Cloudy
10:53 PM -25.1 °F - -31.0 °F 74% 30.18 in 10.0 mi Calm Calm - N/A   Mostly Cloudy
11:53 PM -24.0 °F - -29.9 °F 74% 30.18 in 10.0 mi Calm Calm - N/A   Clear